Location: Franzen
(48.6167°N, 15.3833°E)
Time: 22:58:37
(UTC+00:00)

Cosmos 2219 - Pass Details

Date: 02 August 2021
Orbit: 834 x 859 km, 71.1° (Epoch: 22 September)

Event Time Altitude Azimuth Distance (km) Brightness Sun altitude
Exits shadow 21:47:38 30° 110° (ESE) 1,495 4.1 -21.7°
Maximum altitude 21:47:55 30° 104° (ESE) 1,491 4.2 -21.7°
Drops below altitude 10° 21:52:50 10° 45° (NE) 2,504 6.0 -22.0°
Sets 21:55:34 0° 35° (NE) 3,446 6.9 -22.1°
